Weather History for KBIS - October, 2013

Change the Weather History Date:

Wednesday, October 2, 2013

  Actual Average Record
Temperature  
Mean Temperature 52 °F 51 °F  
Max Temperature 67 °F 65 °F 93 °F (1997)
Min Temperature 37 °F 38 °F 18 °F (1999)
Degree Days  
Heating Degree Days 13 14  
Month to date heating degree days 24 28  
Since 1 July heating degree days 155 314  
Cooling Degree Days 0 0  
Month to date cooling degree days 0 0  
Year to date cooling degree days 555 519  
Growing Degree Days 2 (Base 50)    
Moisture  
Dew Point 39 °F    
Average Humidity 59    
Maximum Humidity 85    
Minimum Humidity 32    
Precipitation  
Precipitation T in 0.04 in 1.18 in (1898)
Month to date precipitation T 0.09  
Year to date precipitation 20.67 15.49  
Snow  
Snow 0.00 in 0.00 in 3.30 in (1950)
Month to date snowfall 0.0 0.0  
Since 1 July snowfall 0.0 0.2  
Since 1 September snowfall 0.0 0.2  
Snow Depth 0.00 in    
Sea Level Pressure  
Sea Level Pressure 29.97 in    
Wind  
Wind Speed 8 mph (NE)    
Max Wind Speed 22 mph    
Max Gust Speed 27 mph    
Visibility 10 miles    
Events Rain    
T = Trace of Precipitation, MM = Missing Value Source: NWS Daily Summary

Daily Weather History Graph

Daily Weather History Graph

Search for Another Location

Airport or City:

Trip Planner

Search our weather history database for the weather conditions in past years. The results will help you decide how hot, cold, wet, or windy it might be!

Date:

Astronomy

Oct. 02, 2013 Rise Set
Actual Time 7:43 AM CDT 7:20 PM CDT
Civil Twilight 7:13 AM CDT 7:50 PM CDT
Nautical Twilight 6:38 AM CDT 8:25 PM CDT
Astronomical Twilight 6:02 AM CDT 9:01 PM CDT
Moon 5:11 AM CDT (10/2) 6:02 PM CDT (10/2)
Length of Visible Light 12h 37m
Length of Day
11h 36m
Waning Crescent, 6% of the Moon is Illuminated
Oct 2
Waning Crescent
Oct 4
New
Oct 11
First Quarter
Oct 18
Full
Oct 26
Last Quarter

Hourly Weather History & Observations

Time (CDT) Temp. Windchill Dew Point Humidity Pressure Visibility Wind Dir Wind Speed Gust Speed Precip Events Conditions
12:52 AM 39.9 °F 37.8 °F 36.0 °F 86% 29.96 in 10.0 mi ESE 3.5 mph - N/A   Clear
1:52 AM 39.9 °F - 36.0 °F 86% 29.96 in 10.0 mi Calm Calm - N/A   Clear
2:52 AM 44.1 °F 42.5 °F 39.9 °F 85% 29.94 in 10.0 mi ENE 3.5 mph - N/A   Overcast
3:52 AM 45.0 °F 42.6 °F 39.9 °F 82% 29.94 in 10.0 mi North 4.6 mph - N/A   Overcast
4:52 AM 46.9 °F - 39.9 °F 77% 29.94 in 10.0 mi ENE 4.6 mph - N/A   Overcast
5:52 AM 46.9 °F - 39.9 °F 77% 29.94 in 10.0 mi NE 3.5 mph - N/A   Overcast
6:52 AM 46.9 °F - 42.1 °F 83% 29.93 in 10.0 mi ENE 3.5 mph - 0.00 in Rain Light Rain
7:52 AM 48.9 °F - 44.1 °F 83% 29.95 in 10.0 mi ENE 5.8 mph - 0.00 in   Overcast
8:52 AM 52.0 °F - 42.1 °F 69% 29.96 in 10.0 mi ENE 10.4 mph - N/A   Overcast
9:52 AM 57.9 °F - 41.0 °F 53% 29.96 in 10.0 mi NNE 12.7 mph - N/A   Mostly Cloudy
10:52 AM 62.1 °F - 41.0 °F 46% 29.97 in 10.0 mi NNE 13.8 mph - N/A   Clear
11:52 AM 63.0 °F - 39.9 °F 43% 29.98 in 10.0 mi NNE 16.1 mph 24.2 mph N/A   Clear
12:52 PM 64.9 °F - 39.9 °F 40% 29.99 in 10.0 mi NNE 12.7 mph - N/A   Clear
1:52 PM 66.9 °F - 39.9 °F 37% 29.98 in 10.0 mi North 16.1 mph - N/A   Clear
2:52 PM 66.0 °F - 36.0 °F 33% 29.97 in 10.0 mi North 16.1 mph - N/A   Clear
3:52 PM 66.0 °F - 37.0 °F 34% 29.96 in 10.0 mi North 11.5 mph 17.3 mph N/A   Clear
4:52 PM 64.0 °F - 36.0 °F 35% 29.97 in 10.0 mi NE 5.8 mph - N/A   Clear
5:52 PM 64.0 °F - 37.0 °F 37% 29.98 in 10.0 mi NNE 6.9 mph - N/A   Partly Cloudy
6:52 PM 61.0 °F - 36.0 °F 39% 29.99 in 10.0 mi NNW 8.1 mph - N/A   Clear
7:52 PM 59.0 °F - 36.0 °F 42% 29.99 in 10.0 mi North 5.8 mph - N/A   Clear
8:52 PM 48.0 °F - 39.0 °F 71% 30.01 in 10.0 mi East 8.1 mph - N/A   Clear
9:52 PM 48.9 °F - 37.9 °F 66% 30.02 in 10.0 mi Calm Calm - N/A   Clear
10:52 PM 44.1 °F 40.1 °F 37.9 °F 79% 30.03 in 10.0 mi ENE 6.9 mph - N/A   Clear
11:52 PM 46.9 °F - 39.9 °F 77% 30.02 in 10.0 mi NE 3.5 mph - N/A   Clear